Wind_Speed
46 45 42 40 39 36 36 32 29 30 33 31 27 30 16 18 13 8 11 14 10 9 9 4 5 12 16 21 28 26 24 26 26 22 20 19 19 18 9 8 9 11 14 14
53 48 46 48 46 42 41 41 36 37 37 38 38 34 31 30 23 24 20 18 14 8 8 13 20 27 23 19 18 20 20 22 25 25 20 17 16 17 16 10 6 8 12 13
57 53 53 53 51 51 48 45 45 46 45 42 43 43 40 39 36 33 32 34 30 24 28 31 31 33 32 27 22 17 13 17 21 25 23 16 14 13 15 14 9 4 7 10
63 59 60 59 57 54 53 54 55 51 51 50 50 50 50 48 45 40 32 34 34 33 32 35 40 43 38 34 30 23 18 15 15 22 21 20 13 10 10 11 12 8 4 4
68 63 65 68 60 62 59 58 59 58 58 59 59 59 57 55 54 48 36 31 34 32 33 37 24 29 38 41 37 31 26 22 22 16 17 19 17 8 7 7 8 10 5 2
71 69 71 70 67 70 66 64 67 63 63 65 66 66 66 58 59 56 51 41 38 38 30 22 31 32 26 29 30 32 28 27 28 30 21 17 18 14 7 5 6 6 6 2
75 74 73 70 71 72 73 72 73 71 72 71 72 71 73 63 60 61 60 56 51 42 36 28 22 29 24 24 27 25 32 37 35 33 33 25 18 18 15 10 9 8 7 6
81 75 72 75 74 73 73 75 74 75 74 76 80 79 79 75 68 67 67 64 62 59 52 46 47 29 19 11 23 20 35 38 39 38 35 36 27 20 19 17 13 12 12 12
77 73 74 78 79 76 77 75 76 77 76 77 80 84 83 83 79 73 74 70 67 65 63 59 57 57 60 64 48 50 34 39 40 38 38 41 34 25 21 20 20 19 17 16
74 70 70 74 79 78 79 77 78 77 80 80 84 85 87 87 84 75 70 71 73 74 72 70 64 64 67 70 72 69 63 62 52 53 47 42 42 38 27 26 24 23 22 22
68 68 69 69 79 76 75 76 76 75 74 76 83 89 88 88 88 83 74 70 72 72 73 73 69 70 73 77 77 74 69 61 58 54 52 48 47 40 39 35 31 29 28 25
66 71 69 67 69 73 74 72 69 70 72 72 75 84 86 93 93 83 74 68 67 68 69 70 71 70 71 73 77 77 75 73 68 65 58 56 55 46 50 49 42 35 34 30
70 70 69 70 73 68 68 68 68 69 72 73 76 82 90 91 93 92 79 69 63 63 67 69 71 74 74 75 76 76 78 76 73 69 67 62 66 66 61 57 50 43 39 40
65 66 67 70 73 72 69 68 71 74 73 74 75 82 93 95 96 91 85 76 70 66 65 70 74 77 77 80 79 78 75 74 71 70 69 61 63 67 65 63 56 50 47 42
68 68 66 67 70 71 71 69 69 71 73 74 75 83 95 96 93 91 88 85 80 75 72 73 77 83 84 80 81 79 79 77 75 72 68 69 58 66 63 61 58 57 50 47
61 63 63 66 70 73 73 75 75 75 79 79 81 86 87 92 93 93 91 92 89 86 82 81 81 84 88 89 87 84 82 79 74 75 73 69 64 61 72 68 64 59 53 48
51 52 54 57 61 65 68 73 72 72 74 76 79 80 81 87 89 91 95 97 92 93 88 85 84 85 88 90 88 88 85 85 80 76 75 74 73 70 62 68 68 60 56 47
48 50 52 55 60 64 68 66 66 69 73 74 77 82 85 87 91 96 101 98 95 96 96 91 87 87 86 88 87 90 88 88 88 82 79 78 77 76 75 68 64 56 49 44
49 51 54 58 62 68 70 67 69 72 75 78 80 83 87 91 94 96 100 103 102 101 100 98 92 88 88 87 90 87 89 92 91 89 84 82 80 79 78 76 67 62 62 65
57 60 64 68 72 77 76 74 77 81 83 81 85 90 94 93 94 99 105 107 106 107 104 103 103 98 94 94 89 85 92 92 89 93 89 85 83 81 79 78 74 67 63 60
61 65 69 70 77 83 81 82 84 88 91 94 100 99 97 101 102 100 104 106 107 107 105 103 100 99 100 94 95 96 97 95 88 88 92 89 87 84 82 79 78 73 67 63
68 74 78 80 88 90 94 94 94 94 96 100 99 95 96 93 92 95 95 97 100 101 104 103 99 94 94 94 93 95 98 98 95 86 88 90 89 87 85 83 79 76 73 70
75 79 81 89 96 95 89 81 77 78 83 84 83 83 83 82 82 81 83 83 84 85 88 91 91 88 88 90 92 93 95 96 98 95 86 88 90 89 86 85 83 69 69 74
73 71 70 68 66 69 74 74 68 71 75 73 74 73 71 71 68 68 64 63 63 66 70 74 79 82 80 79 80 84 91 92 93 95 91 87 88 89 89 87 86 80 69 72
51 51 53 53 55 59 61 68 58 64 66 60 62 57 57 55 54 50 48 46 45 48 51 55 60 66 68 66 68 75 78 83 86 91 91 87 85 86 89 89 86 86 80 78
41 42 43 44 47 49 53 52 57 61 54 51 51 48 44 42 38 33 33 34 34 36 39 40 43 45 47 51 56 61 68 75 75 79 83 84 81 83 87 90 89 88 89 80
Wind_Direction
239 238 239 242 241 247 253 247 246 252 254 254 254 233 246 263 264 288 288 290 298 289 217 261 340 12 23 19 12 17 20 24 23 34 34 41 36 36 52 87 108 127 123 119
240 239 240 241 243 242 243 248 251 254 251 260 261 257 240 244 239 245 269 274 289 269 267 266 291 311 326 342 347 6 7 11 15 14 24 27 34 31 36 31 82 125 133 127
242 242 242 242 242 242 242 245 245 251 250 252 255 260 258 259 260 265 278 288 289 283 289 300 303 303 309 317 322 338 351 354 358 1 2 15 21 23 27 29 28 103 134 138
243 244 247 247 245 245 244 245 245 245 253 253 256 258 257 259 261 261 269 271 275 288 297 303 305 301 300 303 307 314 325 324 337 341 350 349 9 13 9 17 21 18 74 142
245 246 251 251 251 252 245 249 248 247 250 254 252 254 253 258 262 264 257 259 265 272 284 290 300 292 300 293 295 299 306 307 311 321 331 338 335 351 351 348 2 9 20 101
249 249 251 253 253 256 255 254 257 255 255 255 253 253 251 253 260 262 262 254 261 275 268 276 273 297 296 290 282 290 298 299 302 302 306 311 318 318 314 306 317 333 349 331
250 251 252 253 254 256 257 256 258 260 259 260 262 259 255 250 250 258 259 256 251 235 237 240 246 293 286 290 279 269 286 297 292 289 293 293 296 300 296 288 267 276 282 301
251 251 254 256 255 255 257 257 258 261 260 260 261 262 261 261 253 252 254 256 258 257 250 240 247 231 220 245 275 292 302 292 288 288 283 287 284 283 283 280 273 262 263 264
250 250 251 253 252 254 255 256 257 259 260 261 262 263 262 262 259 256 254 257 256 257 257 252 246 242 239 245 248 265 288 269 274 277 277 274 274 275 265 270 269 268 263 259
250 250 250 253 254 253 253 256 256 258 260 261 262 262 263 262 262 260 255 256 256 257 257 252 250 250 248 249 252 253 253 257 265 271 273 271 270 271 265 261 263 265 268 271
251 252 251 251 254 254 255 255 257 258 260 261 263 264 264 264 263 263 258 255 257 259 261 264 259 254 254 256 257 255 253 254 259 257 263 269 256 257 274 268 257 257 255 260
249 249 250 251 255 256 255 259 259 261 260 261 262 264 265 266 265 263 261 259 261 263 263 264 264 261 257 255 256 257 256 255 251 255 257 255 256 252 266 271 265 257 253 252
251 253 255 253 253 257 261 259 259 258 259 258 259 263 264 263 265 268 266 263 261 260 261 260 258 259 257 256 254 252 253 252 252 251 251 252 258 259 262 266 262 258 256 251
255 255 256 258 259 258 256 259 261 260 260 262 264 265 264 266 268 269 270 268 263 258 255 256 258 254 252 254 253 254 253 253 251 249 248 248 252 257 257 260 262 260 257 253
256 257 257 260 262 260 259 257 258 261 262 259 260 262 268 269 270 273 273 270 265 260 255 251 251 256 257 254 256 254 252 250 249 248 244 244 247 253 246 244 249 257 259 257
256 258 260 260 261 264 263 261 258 258 260 263 262 263 266 271 272 271 270 267 264 260 256 254 251 250 251 250 250 250 252 251 247 247 245 243 240 242 250 251 245 244 254 258
262 261 261 261 261 262 262 261 262 261 260 261 261 262 263 264 266 268 269 268 269 268 262 257 256 255 253 255 255 255 253 252 249 245 244 242 240 239 241 246 247 248 251 258
262 267 268 266 265 264 263 267 267 266 264 261 260 260 261 262 264 263 264 266 268 266 264 262 259 254 250 252 250 250 250 250 249 245 242 242 239 238 239 239 241 240 233 260
263 264 264 263 267 270 271 271 271 270 268 266 268 267 264 262 261 265 267 267 265 264 265 265 259 254 252 250 251 250 248 247 248 246 241 239 239 238 237 239 237 234 230 232
266 266 267 270 272 272 274 274 273 272 272 273 271 269 268 269 269 267 266 266 265 265 263 261 261 259 253 250 247 247 248 246 241 245 243 238 236 237 237 237 237 233 230 228
270 272 272 270 271 274 276 275 275 274 273 273 271 271 272 270 268 267 266 267 267 266 265 262 258 257 257 253 250 245 246 248 244 240 242 239 236 233 235 235 235 233 231 225
269 266 265 268 272 275 278 279 278 277 276 274 274 275 273 272 270 268 268 266 266 267 267 266 263 259 255 254 250 246 244 244 246 240 238 239 236 233 231 234 234 232 231 228
269 268 266 269 275 277 279 278 278 277 275 276 276 275 274 273 273 271 270 269 268 268 266 266 264 261 257 253 248 245 243 240 241 242 238 237 236 233 231 230 232 231 231 231
276 275 276 277 280 282 282 283 282 281 279 279 278 278 277 274 274 273 275 274 271 267 264 262 262 260 256 251 247 245 243 241 238 239 238 237 234 232 230 229 228 226 225 230
277 276 279 284 283 284 285 285 287 283 279 278 282 282 277 275 274 277 278 276 274 272 269 266 263 260 257 253 246 240 239 240 238 236 236 236 233 231 228 228 227 227 222 226
290 291 292 291 291 291 290 292 294 287 290 285 283 281 278 274 276 281 287 288 282 277 276 273 268 261 257 251 243 236 234 235 235 233 232 232 229 229 228 226 227 227 224 223
Height
10998 11002 11006 11009 11011 11014 11015 11019 11023 11022 11024 11026 11029 11032 11034 11036 11036 11036 11036 11038 11040 11039 11039 11038 11038 11039 11040 11040 11039 11040 11039 11037 11035 11033 11031 11028 11026 11023 11020 11019 11018 11019 11019 11020
10989 10995 11001 11000 11003 11008 11010 11011 11017 11016 11017 11019 11022 11025 11029 11031 11032 11032 11035 11036 11037 11039 11039 11038 11036 11035 11037 11039 11040 11041 11041 11040 11039 11038 11035 11032 11029 11027 11025 11023 11021 11021 11021 11022
10980 10987 10987 10991 10996 10998 11003 11006 11007 11008 11008 11013 11015 11017 11019 11022 11025 11028 11031 11032 11033 11035 11035 11035 11033 11032 11032 11035 11038 11040 11041 11041 11041 11041 11039 11036 11033 11031 11029 11027 11025 11023 11023 11023
10970 10977 10977 10979 10983 10990 10994 10995 10995 11000 11002 11003 11005 11007 11009 11013 11018 11024 11028 11029 11030 11029 11029 11028 11028 11026 11026 11028 11029 11033 11036 11038 11041 11041 11041 11038 11035 11034 11032 11030 11028 11026 11024 11024
10958 10970 10967 10963 10977 10973 10981 10982 10986 10991 10992 10991 10993 10994 10999 11006 11009 11016 11024 11022 11025 11026 11025 11023 11024 11020 11022 11019 11022 11024 11028 11031 11034 11038 11039 11038 11036 11033 11032 11032 11030 11029 11027 11026
10949 10955 10953 10958 10965 10960 10969 10973 10969 10977 10979 10977 10978 10982 10986 11001 11000 11003 11010 11017 11020 11021 11021 11018 11015 11018 11012 11013 11016 11017 11020 11023 11028 11031 11035 11036 11035 11034 11031 11030 11030 11030 11029 11028
10932 10936 10941 10947 10949 10950 10951 10957 10956 10961 10961 10963 10962 10964 10964 10985 10992 10990 10992 10998 11005 11010 11011 11015 11012 11010 11008 11010 11006 11008 11011 11016 11020 11024 11028 11032 11033 11032 11030 11029 11028 11028 11028 11028
10912 10925 10933 10927 10932 10934 10937 10938 10945 10943 10947 10944 10939 10943 10946 10959 10974 10979 10979 10983 10986 10991 10999 11006 11005 11009 11005 11007 10998 10998 11006 11008 11012 11017 11021 11023 11026 11028 11027 11026 11026 11025 11026 11026
10892 10909 10914 10909 10909 10918 10918 10927 10927 10926 10930 10929 10927 10921 10928 10930 10944 10959 10966 10972 10976 10977 10982 10991 10996 10998 10999 10998 11000 10995 11005 10999 11005 11009 11012 11014 11019 11021 11021 11021 11021 11022 11021 11023
10879 10892 10897 10893 10889 10899 10903 10908 10908 10914 10911 10914 10906 10905 10902 10907 10917 10936 10949 10952 10956 10957 10960 10969 10981 10985 10985 10984 10986 10991 10998 10996 11000 11001 11002 11006 11008 11012 11014 11015 11015 11015 11017 11018
10867 10874 10881 10879 10867 10883 10888 10889 10893 10898 10900 10898 10883 10878 10887 10890 10893 10903 10921 10936 10939 10942 10947 10951 10963 10968 10967 10964 10966 10972 10981 10986 10988 10992 10992 10995 10994 11001 11003 11007 11008 11009 11010 11011
10853 10847 10859 10867 10862 10859 10867 10876 10883 10882 10884 10881 10870 10860 10857 10855 10860 10880 10903 10924 10929 10931 10933 10935 10936 10940 10943 10944 10944 10947 10956 10965 10974 10972 10979 10982 10983 10983 10989 10994 10998 11001 11002 11004
10835 10841 10842 10846 10845 10855 10856 10862 10863 10864 10860 10861 10854 10844 10834 10836 10837 10847 10878 10902 10914 10916 10915 10916 10919 10917 10919 10921 10923 10928 10934 10943 10952 10958 10962 10969 10969 10971 10973 10980 10985 10989 10992 10994
10823 10826 10828 10827 10830 10839 10843 10842 10842 10840 10846 10844 10841 10826 10802 10810 10818 10837 10855 10875 10888 10893 10894 10891 10890 10892 10892 10892 10899 10904 10913 10919 10929 10938 10942 10948 10954 10956 10959 10963 10970 10975 10978 10982
10806 10808 10814 10815 10812 10816 10821 10826 10827 10825 10823 10826 10824 10805 10785 10794 10810 10817 10827 10838 10849 10859 10865 10870 10869 10863 10867 10874 10876 10883 10887 10896 10904 10913 10922 10927 10934 10938 10944 10948 10949 10957 10966 10969
10791 10795 10799 10798 10794 10794 10799 10802 10805 10807 10803 10802 10803 10795 10796 10778 10783 10788 10793 10795 10806 10820 10833 10838 10841 10839 10836 10844 10848 10857 10864 10872 10883 10890 10898 10905 10914 10922 10923 10929 10938 10944 10952 10962
10779 10781 10782 10781 10779 10777 10774 10776 10786 10788 10785 10786 10784 10783 10781 10767 10759 10756 10762 10767 10777 10782 10796 10808 10812 10815 10818 10819 10829 10834 10844 10847 10858 10869 10874 10883 10891 10899 10905 10913 10922 10937 10941 10946
10765 10765 10764 10764 10759 10757 10757 10764 10767 10763 10760 10765 10761 10756 10757 10760 10751 10739 10728 10740 10747 10751 10754 10766 10778 10783 10786 10788 10799 10806 10812 10818 10826 10840 10851 10859 10867 10876 10883 10895 10908 10918 10920 10928
10753 10751 10748 10745 10742 10736 10739 10748 10744 10740 10737 10736 10736 10734 10730 10728 10726 10723 10715 10710 10713 10718 10721 10724 10738 10749 10754 10763 10765 10779 10783 10788 10798 10807 10822 10834 10843 10853 10862 10871 10887 10897 10901 10911
10736 10734 10731 10728 10722 10715 10719 10724 10721 10712 10709 10715 10710 10701 10696 10701 10701 10694 10682 10679 10684 10684 10689 10694 10698 10710 10720 10725 10740 10751 10745 10754 10769 10777 10792 10806 10819 10830 10839 10849 10859 10873 10885 10893
10720 10712 10706 10705 10700 10691 10698 10698 10697 10691 10687 10683 10672 10671 10675 10665 10660 10663 10655 10651 10647 10648 10649 10655 10667 10675 10678 10696 10706 10713 10714 10722 10739 10753 10760 10776 10790 10804 10815 10825 10835 10847 10860 10869
10704 10698 10690 10685 10674 10671 10671 10670 10668 10663 10656 10642 10640 10640 10631 10632 10630 10623 10624 10621 10617 10616 10614 10617 10628 10635 10644 10654 10667 10677 10688 10696 10705 10723 10733 10744 10759 10776 10790 10801 10813 10824 10834 10844
10678 10674 10671 10664 10655 10647 10642 10641 10639 10632 10620 10614 10613 10608 10604 10599 10597 10596 10592 10592 10591 10592 10588 10585 10588 10596 10603 10614 10626 10638 10647 10662 10676 10690 10706 10717 10730 10748 10763 10777 10789 10803 10813 10822
10658 10652 10646 10638 10633 10623 10611 10609 10615 10604 10591 10591 10586 10580 10578 10575 10572 10568 10568 10566 10563 10560 10558 10557 10557 10559 10566 10577 10590 10607 10615 10630 10646 10660 10677 10690 10704 10720 10737 10751 10765 10780 10792 10799
10639 10638 10630 10625 10617 10607 10599 10587 10586 10573 10564 10567 10563 10560 10556 10553 10550 10550 10548 10545 10543 10541 10538 10536 10535 10535 10537 10548 10562 10573 10586 10598 10616 10633 10648 10665 10682 10695 10711 10725 10740 10754 10769 10778
10625 10619 10615 10609 10602 10592 10582 10580 10567 10548 10549 10546 10543 10541 10539 10536 10536 10536 10534 10533 10530 10525 10520 10519 10517 10518 10521 10527 10534 10548 10562 10571 10589 10606 10623 10640 10658 10672 10686 10701 10716 10727 10741 10750